GFSCGP_700_rhum_195.txt.gz
RH
27 25 21 20 33 46 42 50 56 50 44 42 40 38 36 32 28 28 28 28 28 28 28 28 27 26 30 36 37 30 37 44 49 49 51 52 57 64 62 53 42 36 36 37
23 18 18 26 35 52 51 55 52 47 44 42 40 42 39 34 31 27 23 22 25 25 27 27 24 23 21 26 33 37 42 50 50 52 50 50 67 72 64 56 45 40 39 41
27 21 33 43 48 51 51 53 51 47 41 44 43 38 31 20 19 15 7 6 8 6 5 7 13 19 19 22 27 38 44 58 63 64 50 50 49 63 68 59 51 46 44 46
35 30 42 44 43 48 48 46 49 44 36 31 32 31 25 16 10 6 9 15 21 20 21 19 13 14 18 22 25 38 58 67 68 73 50 63 76 81 70 65 58 51 50 54
25 36 44 40 42 39 33 34 32 29 31 30 29 28 23 21 15 16 24 27 26 28 29 27 26 27 26 28 37 59 95 98 96 99 63 75 90 85 79 72 63 56 56 59
23 31 41 36 30 27 26 25 26 29 30 36 28 29 27 24 26 25 24 27 26 24 23 22 22 28 36 37 77 97 100 100 100 97 82 82 79 88 83 74 63 62 65 62
24 26 26 26 26 23 24 24 34 37 41 42 29 32 28 28 31 30 29 28 26 25 24 28 28 26 56 80 100 100 100 99 98 91 51 59 95 94 86 73 66 67 67 58
31 32 25 26 25 29 27 28 33 48 56 49 36 35 32 36 37 37 37 39 40 42 46 52 62 65 74 93 100 95 97 95 83 66 43 46 81 90 84 75 68 73 66 64
32 33 30 29 28 32 33 36 37 38 38 47 38 35 38 44 52 50 48 49 54 57 62 65 76 100 100 99 100 98 96 90 70 81 52 41 58 60 76 77 78 78 72 75
32 33 30 30 31 29 30 32 33 39 55 59 43 39 37 52 59 56 59 54 54 50 62 60 80 78 78 64 55 54 44 51 72 83 83 61 57 66 64 80 82 83 80 83
34 37 36 36 35 33 32 32 35 38 39 57 49 45 50 59 60 58 71 76 70 73 59 52 41 36 41 44 35 46 38 45 49 49 64 83 78 76 78 80 82 87 87 90
35 39 42 42 40 39 36 36 33 40 38 46 62 62 45 48 61 64 62 72 66 91 65 62 54 49 44 46 54 50 42 45 49 56 57 48 53 55 73 80 85 87 91 93
47 45 53 41 39 39 41 41 43 46 47 47 76 62 52 68 55 49 44 68 57 64 72 69 63 61 46 48 67 67 62 55 60 68 68 70 70 67 69 81 94 91 93 96
59 67 65 60 54 52 53 48 47 50 56 58 67 65 52 46 44 48 49 53 60 59 66 58 51 47 42 60 71 81 76 69 74 68 70 74 81 83 79 90 93 94 96 100
73 78 72 68 69 63 65 61 64 68 62 72 66 68 55 47 53 56 51 48 51 54 64 59 54 49 47 49 52 55 60 61 68 73 74 84 88 92 86 87 83 100 98 98
80 72 67 60 64 77 79 73 84 65 61 65 58 50 42 56 51 55 61 65 65 63 56 48 43 40 32 26 32 57 61 61 64 67 88 94 91 94 93 91 99 100 98 98
100 96 95 90 84 84 97 76 58 51 47 48 56 44 55 57 49 61 70 70 70 66 59 54 46 27 23 35 53 63 68 71 63 62 83 86 94 96 88 100 90 70 99 98
89 99 100 94 98 95 60 55 53 52 46 50 52 58 55 59 73 72 69 81 80 59 44 34 30 29 38 53 73 97 83 68 68 85 86 82 94 97 99 98 97 83 88 99
51 78 100 97 96 84 62 40 51 52 51 54 53 47 68 65 74 56 54 47 45 39 23 21 35 55 66 62 91 87 83 88 91 83 77 76 83 86 99 98 97 97 98 98
49 62 100 98 96 86 47 59 66 72 68 77 70 71 82 78 72 60 68 41 32 35 23 15 43 80 78 78 76 74 71 79 76 72 71 87 76 74 84 98 100 97 96 96
57 59 86 84 96 87 70 74 78 92 72 80 84 94 90 77 80 70 74 50 39 25 12 12 48 60 99 86 84 72 71 68 62 56 57 68 74 75 97 100 100 100 100 98
73 70 75 83 94 87 82 79 97 91 97 94 83 74 76 83 81 81 81 55 49 30 18 11 43 76 88 95 88 84 74 72 66 62 58 67 71 72 70 78 89 100 100 100
96 93 96 96 92 87 94 87 94 96 96 95 97 77 76 76 73 71 63 63 54 31 26 64 90 94 98 95 88 85 73 69 65 65 62 56 54 51 54 76 92 96 99 97
73 78 94 79 58 45 40 51 85 97 95 97 97 94 91 79 75 71 74 70 49 33 54 78 66 85 90 96 94 91 91 87 79 74 68 62 50 52 55 76 85 88 96 96
68 72 63 56 55 42 35 52 57 70 92 96 95 97 94 96 86 82 84 74 55 43 47 100 74 82 95 97 90 92 93 92 91 90 82 73 63 55 58 81 96 96 96 98
51 48 51 37 37 39 36 34 40 47 63 86 76 57 76 90 83 82 74 71 60 65 43 62 80 66 92 79 69 70 67 65 73 82 91 94 80 62 70 86 100 98 97 96

GFSCGP_700_rhum_198.txt.gz
RH
33 30 24 22 26 32 39 48 47 32 34 51 41 40 35 31 34 34 32 31 29 27 28 28 29 28 28 29 28 27 30 37 40 52 55 45 41 57 72 80 75 68 50 38
25 21 21 21 23 31 41 50 40 45 41 44 44 45 45 36 31 30 30 29 21 20 12 9 12 12 14 20 24 23 25 42 49 53 60 59 48 50 66 84 80 68 48 40
23 27 24 30 30 43 46 53 51 51 53 54 47 40 31 20 14 11 10 9 9 9 9 11 15 19 25 25 21 24 30 44 48 56 62 66 59 51 63 80 85 63 48 44
20 21 28 37 32 42 47 46 45 41 38 34 34 34 28 19 14 11 14 11 12 14 21 25 28 27 27 27 30 31 45 64 68 68 72 76 78 87 97 93 74 58 51 49
22 23 37 43 40 41 37 36 31 28 30 32 32 29 24 22 21 21 19 12 16 16 16 18 23 26 24 22 29 43 59 96 96 98 99 100 99 100 99 93 68 60 56 55
20 19 20 19 32 36 31 27 26 25 25 37 28 30 24 24 24 24 26 28 28 27 25 21 19 21 22 24 39 62 99 99 100 100 99 99 99 99 94 98 90 72 62 63
29 25 20 19 24 22 23 24 33 35 42 37 28 32 27 26 28 31 32 34 35 36 33 29 24 21 20 21 51 86 100 100 100 98 98 94 98 85 90 96 92 80 71 67
35 31 26 26 25 26 28 28 30 45 50 43 35 37 30 33 34 36 44 50 54 56 56 54 54 52 45 58 77 100 100 98 97 97 92 91 93 88 89 96 94 83 76 67
30 32 31 29 31 33 36 35 37 38 41 50 38 35 37 37 45 53 54 59 56 57 56 54 54 46 46 74 96 98 98 94 69 63 67 81 78 85 96 97 91 86 78 68
33 32 30 28 31 31 32 33 34 37 53 51 40 38 37 42 54 56 58 55 53 52 64 65 55 51 49 47 44 43 46 46 51 59 62 88 94 86 90 98 98 88 82 76
37 38 38 38 36 35 35 35 35 36 36 52 45 37 44 49 52 57 62 59 55 58 63 67 60 54 52 64 56 48 49 51 44 53 63 62 76 78 90 88 90 90 88 85
46 49 45 42 36 34 40 39 38 41 42 42 58 48 45 46 46 56 65 66 53 56 52 51 48 59 62 64 56 65 68 69 60 54 67 71 72 81 83 98 100 95 92 84
60 52 57 47 46 43 48 46 48 49 51 53 70 57 45 45 48 47 41 41 46 53 53 48 52 59 55 52 41 54 58 68 70 67 67 73 76 79 78 87 97 99 100 98
79 78 68 70 65 66 68 67 65 62 60 59 57 57 52 54 47 44 40 44 53 47 53 54 57 48 52 48 46 49 51 58 64 73 72 69 71 80 77 83 93 83 88 96
74 76 73 70 69 73 65 69 79 77 70 68 65 65 63 40 37 52 48 45 48 53 52 58 60 62 64 58 52 41 36 34 54 75 77 69 66 91 94 86 83 80 75 92
83 90 82 74 71 62 60 60 73 68 74 83 84 82 28 40 57 54 49 52 58 63 67 71 70 61 46 44 45 42 30 24 36 46 65 63 65 87 91 96 98 100 80 77
92 96 96 89 83 82 80 58 58 52 54 53 64 38 49 52 50 55 57 57 72 81 79 79 75 67 56 47 49 30 40 48 61 57 65 71 69 88 97 100 98 100 96 85
76 86 99 93 95 93 56 59 60 59 54 43 48 45 48 50 55 54 64 77 84 76 59 52 37 20 27 49 64 69 65 89 90 83 77 75 64 84 98 98 98 97 95 100
55 74 100 96 86 71 61 56 62 56 47 51 54 48 60 64 70 64 74 71 66 48 42 39 32 24 25 86 92 83 79 90 95 95 88 90 96 96 94 96 96 96 97 97
54 56 100 98 95 78 61 59 63 73 71 57 78 75 87 82 87 69 84 71 78 52 44 34 23 15 17 45 87 82 76 71 70 78 83 89 91 89 100 89 99 99 100 97
65 65 92 100 95 86 80 70 70 85 72 62 95 95 95 99 92 81 74 76 88 64 61 49 26 20 23 43 84 89 83 72 69 70 75 68 66 78 79 73 96 96 98 98
76 73 81 94 94 88 91 89 84 75 87 96 98 98 88 93 88 93 80 88 72 67 58 35 25 46 79 88 90 94 90 76 71 69 63 65 72 74 74 74 71 94 100 99
85 87 90 96 86 88 82 70 40 54 69 88 96 97 97 90 94 80 74 77 78 76 68 41 28 49 63 74 89 92 93 81 74 66 66 65 59 56 58 58 54 77 100 99
76 87 95 97 66 80 71 70 53 49 58 73 92 92 96 92 83 78 86 84 96 87 70 52 35 59 60 60 98 96 97 92 87 82 76 70 66 61 50 49 54 78 97 98
56 64 59 68 54 49 41 49 42 48 57 62 73 66 92 90 88 84 84 82 86 83 63 70 61 56 77 66 96 97 99 96 95 90 86 83 80 72 63 55 59 83 94 95
51 35 55 41 39 50 38 44 46 51 44 58 58 49 62 81 57 70 86 75 67 79 75 76 83 90 82 74 70 89 78 66 68 68 69 75 86 90 80 67 73 86 96 97

GFSCGP_700_rhum_201.txt.gz
RH
38 33 29 28 25 24 24 24 23 17 21 36 21 30 30 27 29 28 28 32 34 33 32 31 29 27 24 27 29 29 31 32 43 43 44 51 50 51 47 46 64 80 78 80
28 24 24 23 22 20 23 27 21 26 33 44 40 40 30 20 21 20 16 13 12 11 11 11 11 11 14 16 14 14 19 29 42 58 59 59 65 63 57 53 65 95 85 87
19 23 25 21 23 32 34 38 38 48 46 45 43 34 25 20 17 16 14 14 14 15 16 19 24 27 27 26 26 28 27 23 61 84 84 76 65 68 64 64 81 94 94 82
19 22 24 27 27 37 42 38 42 37 35 38 35 29 28 27 16 15 17 17 21 19 18 20 21 20 20 20 21 21 26 36 57 96 99 99 96 94 98 100 100 98 96 61
23 22 21 21 21 39 39 38 34 31 28 27 32 32 23 23 22 21 19 16 17 16 18 21 24 24 23 21 20 21 27 34 51 97 98 99 100 100 100 99 99 99 97 74
21 20 20 19 17 18 32 36 32 27 25 31 25 28 23 24 25 25 26 28 28 30 30 29 27 26 24 23 23 27 30 45 60 97 99 100 98 99 88 98 95 96 98 93
30 28 26 25 24 21 21 25 28 26 34 27 28 32 26 26 28 31 32 32 34 35 36 36 37 35 34 33 30 30 33 52 73 99 100 100 97 97 82 97 100 100 98 98
36 30 26 28 27 28 28 28 28 30 30 27 35 35 32 32 32 33 35 40 44 44 48 52 52 48 48 45 43 49 55 85 100 98 93 92 77 91 94 87 99 97 96 94
27 31 29 29 30 32 33 34 35 38 40 44 33 33 35 33 36 43 50 50 51 56 56 54 54 50 46 47 44 44 53 57 50 56 58 70 71 76 80 79 81 74 79 86
32 34 33 30 30 32 31 33 35 37 41 39 30 32 32 34 50 56 57 56 57 56 52 50 44 54 61 55 54 54 60 76 58 46 48 71 68 51 66 76 85 92 89 95
34 38 37 36 35 36 36 35 36 36 36 40 41 38 43 47 48 48 50 51 47 42 42 45 45 48 45 43 55 64 72 76 79 76 59 61 76 84 74 72 97 99 99 98
40 49 52 50 50 51 42 37 39 46 43 52 61 53 47 45 44 45 42 42 44 43 41 36 38 44 46 58 65 68 73 90 96 96 95 75 78 87 81 70 72 96 98 97
59 58 62 59 52 46 47 49 48 57 71 73 71 60 47 44 42 41 39 34 40 42 38 37 39 42 50 62 69 77 67 63 68 80 94 91 78 76 92 83 84 88 92 100
94 80 76 72 60 57 62 52 52 65 94 82 76 66 34 40 45 38 29 23 27 38 44 47 46 48 55 57 53 54 59 51 53 71 63 86 76 71 92 97 92 81 80 94
93 89 81 79 78 72 68 76 80 78 73 75 51 60 50 40 36 43 39 39 45 49 51 55 59 59 59 60 60 63 63 55 44 39 41 49 63 62 74 91 96 97 99 99
96 95 85 83 79 70 76 85 73 72 54 63 68 70 42 45 40 44 46 45 54 54 57 72 71 71 70 70 64 59 54 54 55 51 31 28 40 67 70 80 94 95 97 94
96 96 96 92 77 89 82 42 44 43 44 55 73 52 50 48 48 40 48 48 49 62 69 84 84 76 66 58 40 26 29 37 48 52 58 63 62 63 70 72 90 97 88 97
95 97 96 92 95 85 43 48 60 66 51 54 62 54 52 50 50 65 58 51 66 76 84 65 49 36 34 22 18 17 36 66 69 74 81 88 85 77 79 76 87 98 95 100
78 91 98 96 84 63 56 49 52 52 48 64 60 54 49 55 58 76 84 79 85 76 56 45 40 46 29 22 14 13 28 72 76 79 76 83 79 86 83 76 78 100 98 97
69 88 100 98 87 60 41 53 68 72 88 67 66 60 74 70 80 91 92 90 81 79 64 48 52 42 37 26 37 49 38 87 81 74 72 84 91 93 94 98 98 95 98 99
69 94 94 100 94 74 61 70 70 86 74 75 74 71 75 87 99 99 94 93 89 83 74 64 63 51 29 36 58 86 77 94 96 86 71 74 78 83 78 72 94 95 91 95
64 67 93 99 94 81 78 83 78 72 67 61 56 68 92 95 98 97 96 99 96 90 75 81 79 60 37 53 64 64 92 90 97 92 71 65 59 57 65 70 75 76 88 94
66 60 68 75 61 75 78 77 72 84 76 78 51 57 60 76 95 97 96 95 80 77 84 94 90 64 35 39 59 52 96 85 100 95 76 69 65 64 58 58 64 72 77 100
70 79 79 70 46 65 56 45 40 58 51 56 69 53 56 73 81 96 96 92 92 84 78 88 86 60 48 59 74 70 97 99 98 96 86 78 73 68 66 60 51 52 55 62
50 48 34 44 29 29 27 34 45 48 45 43 52 48 49 59 78 92 94 85 93 92 70 83 71 76 76 91 78 71 84 97 98 98 96 93 85 83 78 71 63 54 58 77
34 24 42 38 35 47 42 48 60 53 48 55 54 47 48 48 65 76 68 71 69 90 68 77 74 81 76 87 90 71 70 79 93 75 79 76 74 79 90 91 78 66 70 92

GFSCGP_700_rhum_204.txt.gz
RH
42 47 42 37 40 28 23 37 34 30 32 38 41 37 34 36 36 33 34 32 26 24 21 21 23 23 22 18 13 13 24 34 40 51 58 59 53 52 50 54 60 65 65 78
35 38 31 22 20 18 18 31 32 34 40 40 35 34 31 32 30 31 28 19 16 13 14 14 16 19 26 27 26 25 24 22 16 15 28 64 80 69 68 64 64 76 89 95
30 22 19 19 20 20 35 40 37 39 39 32 30 24 24 27 20 19 20 16 15 16 18 20 21 21 20 20 19 22 24 23 25 30 26 27 72 96 87 81 79 82 97 100
21 21 19 19 21 22 32 38 37 39 32 24 29 22 21 22 25 22 18 18 20 23 24 21 19 21 22 22 21 21 21 21 21 26 36 39 56 98 98 97 98 92 100 98
31 25 23 21 23 18 29 25 31 31 29 28 26 25 21 22 21 23 21 19 20 21 20 22 23 26 27 27 27 26 26 26 24 28 28 47 91 99 99 98 100 97 100 100
27 27 24 26 20 21 30 28 28 28 29 24 22 21 20 19 26 32 26 26 26 27 27 27 30 31 32 33 34 34 33 32 33 32 35 40 95 98 100 100 99 100 97 96
40 38 36 32 30 33 28 30 26 26 28 26 27 23 21 28 26 27 30 31 31 35 38 41 41 44 46 43 40 32 28 33 33 34 46 65 91 100 100 99 96 88 92 100
40 40 36 30 28 30 33 29 28 32 28 24 27 27 25 33 30 32 33 32 41 46 46 47 52 51 49 44 40 43 46 45 48 44 52 69 92 90 83 83 80 100 98 95
42 39 34 30 28 30 35 32 32 34 32 32 30 28 31 32 33 32 33 46 50 52 56 57 53 47 42 40 40 50 53 55 58 57 46 42 43 63 74 91 98 99 100 95
42 42 38 37 34 31 33 33 36 34 38 37 26 26 26 37 52 57 43 51 51 55 56 52 45 41 39 36 39 43 45 58 76 74 86 69 70 91 96 98 98 98 98 97
42 42 44 43 38 35 37 34 36 35 34 38 41 36 40 48 40 51 55 50 48 53 57 43 40 37 40 41 50 51 58 66 79 91 92 93 90 97 99 98 100 99 98 98
53 49 46 43 40 38 40 38 38 39 41 43 48 57 49 53 54 47 48 51 54 52 50 36 30 40 42 44 44 53 61 70 86 94 98 90 94 97 95 92 98 100 99 98
60 58 58 68 60 55 52 49 49 50 57 55 65 56 47 55 53 53 50 55 47 29 24 22 23 36 42 46 47 54 59 69 75 91 93 94 94 96 93 98 92 100 89 99
86 84 82 66 67 85 63 53 53 55 68 71 67 61 60 60 55 50 57 56 48 49 38 39 42 47 48 56 54 56 61 68 69 73 79 88 93 84 75 97 93 91 87 87
97 98 97 89 87 88 82 75 75 81 86 88 74 60 43 40 47 58 63 56 44 43 61 53 53 54 65 73 73 69 68 67 67 61 56 55 47 67 81 68 92 82 87 87
97 98 99 99 93 88 79 74 75 69 67 67 62 52 47 52 62 65 61 60 61 69 73 50 56 66 72 73 76 69 66 67 65 60 55 48 42 51 42 67 68 79 81 84
97 97 96 95 80 76 77 67 55 60 63 64 58 49 53 67 73 67 62 56 79 52 60 74 82 82 79 69 42 35 26 20 20 27 44 56 56 57 61 51 68 84 81 74
96 97 96 95 77 80 57 48 48 56 55 62 66 70 83 85 62 46 72 59 74 73 79 89 82 71 39 38 34 24 20 14 14 43 68 71 71 77 83 80 56 71 80 72
96 96 96 94 73 58 53 55 58 63 57 59 66 70 73 69 60 62 94 76 71 83 86 77 60 43 46 40 30 30 21 26 20 21 77 74 69 79 89 86 87 81 76 82
96 96 97 96 78 53 55 48 49 57 62 88 92 88 77 72 66 62 65 71 92 96 96 87 77 62 62 50 28 22 28 45 63 51 85 78 76 84 90 89 86 82 82 98
99 99 95 91 90 65 58 70 63 79 58 70 73 74 83 68 60 62 82 83 86 97 96 97 82 74 66 47 31 24 34 49 75 82 94 89 75 83 86 92 98 97 97 97
91 95 91 94 84 76 69 73 82 78 65 63 74 81 59 62 59 51 58 68 96 97 96 94 79 79 70 46 32 28 27 36 60 83 95 90 82 72 73 70 72 72 88 94
80 74 65 69 61 62 66 56 72 86 90 87 82 68 61 49 68 90 52 54 93 91 97 92 88 86 67 46 39 34 45 57 77 91 85 96 93 84 74 72 70 73 78 85
58 50 57 69 38 62 68 71 55 55 80 77 83 75 64 57 82 69 53 47 91 96 95 94 81 83 59 48 49 48 54 64 97 97 100 96 95 84 78 73 67 60 60 67
68 82 42 67 70 68 59 60 69 58 57 68 79 79 81 86 55 41 46 43 85 95 96 95 76 79 62 62 59 59 62 64 64 94 97 98 97 97 92 84 77 69 59 58
28 23 64 67 66 67 65 76 57 40 43 62 87 92 90 95 79 59 51 45 82 86 88 95 77 84 72 66 69 65 67 65 57 67 87 93 96 86 85 87 93 86 74 63